Location: Peterborough
(44.3091°N, 78.3197°W)
Time: 01:31:24
(UTC-04:00)

Vanguard 1 Rocket - Pass Details

Date: 31 March 2023
Orbit: 655 x 4220 km, 34.3° (Epoch: 02 June)

Event Time Altitude Azimuth Distance (km) Brightness Sun altitude
Rises 20:07:06 0° 208° (SSW) 7,891 12.4 -5.8°
Reaches altitude 10° 20:13:03 10° 200° (SSW) 7,156 12.0 -6.8°
Maximum altitude 20:34:33 36° 144° (SE) 5,397 10.9 -10.5°
Enters shadow 20:52:42 11° 88° (E) 6,228 11.1 -13.6°
